Regional Weather Roundup
Issued by NWS

Home | Current Version | Previous Version | Text Only | Print | Product List | Glossary Off
Versions: 1 2 3 4 5 6 7 8 9 10 11 12 13 14 15 16 17 18 19 20 21 22 23 24 25 26 27 28 29 30 31 32 33 34 35 36 37 38 39 40 41 42 43 44 45 46 47 48 49 50

000
ASUS43 KLOT 142058
RWRIL

ILLINOIS REGIONAL WEATHER ROUNDUP
NATIONAL WEATHER SERVICE CHICAGO/ROMEOVILLE IL
400 PM CDT SUN SEP 14 2014

NOTE: "FAIR" INDICATES FEW OR NO CLOUDS BELOW 12,000 FEET WITH NO
SIGNIFICANT WEATHER AND/OR OBSTRUCTIONS TO VISIBILITY.

* THESE STATIONS ARE NOT UNDER NWS QUALITY CONTROL. THEY ALSO MAY NOT
  REPORT WEATHER SUCH AS PRECIPITATION OR FOG.

ILZ001-002-007-009-015-016-024-142200-
NORTHWEST ILLINOIS

CITY           SKY/WX    TMP DP  RH WIND       PRES   REMARKS
MOLINE         SUNNY     67  44  43 SW8       30.19F
$$

ILZ003-004-008-010-011-017-018-142200-
NORTH CENTRAL ILLINOIS

CITY           SKY/WX    TMP DP  RH WIND       PRES   REMARKS
ROCKFORD       NOT AVBL
$$

ILZ005-006-012>014-019>023-142200-
NORTHEAST ILLINOIS

CITY           SKY/WX    TMP DP  RH WIND       PRES   REMARKS
CHICAGO-OHARE  MOSUNNY   65  43  44 SW10      30.19F
CHICAGO-MIDWAY MOSUNNY   66  43  43 SW8       30.20F
AURORA         SUNNY     66  42  41 W7        30.20F
WAUKEGAN       SUNNY     63  44  50 VRB6      30.18F
DUPAGE AIRPORT SUNNY     66  44  45 SW6       30.20F
WHEELING       SUNNY     66  42  41 S9        30.21F
NORTHERLY ISL    N/A     64  38  38 SW12        N/A
$$

LMZ740>746-142200-
SOUTHERN LAKE MICHIGAN

STATION/POSITION SKY/WX   TEMP    WIND        PRES    VSBY  WAVE
                          AIR SEA DIR/SP/G                  HT/PER
                          (F)     (DEG/KT/KT) (MB)    (MI)  (FT/S)
SOUTHERN BUOY              57 65  200/ 12/ 16 1023.7F         1/ 3
WAUKEGAN HARBOR            62     200/ 12/ 16   N/A
HARRISON CRIB              62     220/ 10/ 14   N/A
BURNHAM HARBOR             64     210/  7/ 12   N/A
CALUMET HARBOR             64     230/  5/ 12 1021.6F
MICHIGAN CITY              60     200/  9/ 12   N/A
MICHIGAN CITY 6N           61 65  260/  6/ 10   N/A           1/ 2
ST. JOSEPH                 60 67  240/  8/ 10   N/A           1/ 2
$$

ILZ025>027-034>036-040-047-049-050-058-095>099-142200-
WEST-CENTRAL ILLINOIS

CITY           SKY/WX    TMP DP  RH WIND       PRES   REMARKS
$$

ILZ028>032-037-038-041>044-048-051>054-059>061-142200-
CENTRAL ILLINOIS

CITY           SKY/WX    TMP DP  RH WIND       PRES   REMARKS
PEORIA         NOT AVBL
SPRINGFIELD    SUNNY     69  43  38 VRB3      30.21F
TAYLORVILLE    NOT AVBL
$$

ILZ033-039-045-046-055>057-062-063-142200-
EAST-CENTRAL ILLINOIS

CITY           SKY/WX    TMP DP  RH WIND       PRES   REMARKS
CHAMPAIGN      SUNNY     69  45  41 SW9       30.21F
MATTOON        SUNNY     67  44  43 CALM      30.21F
$$

ILZ079-100>102-142200-
SOUTHWEST ILLINOIS

CITY           SKY/WX    TMP DP  RH WIND       PRES   REMARKS
CAHOKIA*       SUNNY     71  46  40 N5        30.21F
$$

ILZ064>066-069>071-074>076-080>082-084>086-088>090-092>094-142200-
SOUTH-CENTRAL ILLINOIS

CITY           SKY/WX    TMP DP  RH WIND       PRES   REMARKS
CARBONDALE     SUNNY     71  46  40 CALM      30.21F
MARION         SUNNY     70  48  46 CALM      30.22F
$$

ILZ067-068-072-073-078-083-087-091-142200-
SOUTHEAST ILLINOIS

CITY           SKY/WX    TMP DP  RH WIND       PRES   REMARKS
LAWRENCEVILLE  SUNNY     70  47  43 SW5       30.21F
$$

ABBREVIATIONS USED IN REMARKS
   TC - TEMPERATURE IN CELSIUS
  WCI - WIND CHILL INDEX
   HX - HEAT INDEX
  VSB - VISIBILITY
$$



USA.gov is the U.S. government's official web portal to all federal, state and local government web resources and services.